Location: Newark
(49.3000°N, 9.4667°E)
Time: 07:42:26
(UTC+00:00)

Tiros 1 - Pass Details

Date: 31 May 2019
Orbit: 631 x 664 km, 48.4° (Epoch: 25 June)

Event Time Altitude Azimuth Distance (km) Brightness Sun altitude
Rises 10:15:59 0° 272° (W) 2,925 10.4 59.8°
Reaches altitude 10° 10:18:18 10° 272° (W) 2,020 9.7 60.0°
Maximum altitude 10:22:57 79° 186° (S) 655 8.8 60.4°
Drops below altitude 10° 10:27:38 10° 100° (E) 2,037 10.1 60.7°
Sets 10:29:59 0° 99° (E) 2,952 10.8 60.9°
